COSMOS 2214

Satellite information

Favourite Embed

Satellite Type and Status

PAYLOADIN ORBIT

Key statistics

Satellite COSMOS 2214 at a glance.

Uptime

12107

Days in orbit

Revolutions

≈ 12.6

Per day

Orbit

LEO

Low Earth Orbit

Inclination

82.6

Latest

Satellite identification and parameters

Extended collection of information and parameters for COSMOS 2214.

Object identification

Identified? True

Debris? False

Object name: COSMOS 2214

International designator: 1992-068D

Object number (NORAD): 22185

Object ID (CCSDS): 22185

Country: COMMONWEALTH OF INDEPENDENT STATES (CIS)

Current information (Y/N): Y

RCS size: LARGE

Orbital parameters

Period: 114.141 minutes

Inclination: 82.5908 deg

SMA: 7794.492 km

Apoapsis: 1422.978 km

Periapsis: 1409.736 km

RAAN: 112.6752 deg

Eccentricy: 0.00084945

Argument of periapsis: 209.9547 deg

Mean anomaly: 164.4571 deg

Mean motion: 12.6159814 rev/day

Mean motion (dot): 0.00000036 rev/day2

B* drag term: 0.00014357402 1/REarth

Two-line elements (TLE)

Creation date: Dec. 12, 2025, 10:14 a.m.

Reference frame: TEME

Reference center: EARTH

Epoch: Dec. 12, 2025, 7:06 a.m. UTC

TLE line 0: 0 COSMOS 2214

TLE line 1: 1 22185U 92068D 25346.29590211 .00000036 00000-0 14357-3 0 9994

TLE line 2: 2 22185 82.5908 112.6752 0008495 209.9547 164.4571 12.61598140526084

Live tracking on map

Real-time ground track for satellite COSMOS 2214.

In-orbit conjunctions

A list of the most updated potential collisions computed for object COSMOS 2214.

Target Orbit TCA Probability of collision Miss distance Type
DELTA 1 DEB LEO 2025-04-04 12:11:11 0.0006393168 551.0 (m) DEBRIS

Associated space launch

Second generation store-dump military communications satellite

COSMOS 2214 was lifted into orbit during the mission ‘Tsiklon-3 | Strela-3 83 to 88’, on board a Tsiklon-3 space rocket.

The launch took place on Oct. 20, 1992, 12:58 p.m. from 32/1.

For more information about the launch, click the button.

Launch to space Tsiklon-3 | Strela-3 83 to 88
Tsiklon-3 | Strela-3 83 to 88

Agency: N/A

Status: Launch Successful

Launch date: Oct. 20, 1992, 12:58 p.m. UTC

Rocket: Tsiklon-3

Launch pad: 32/1

Location: Plesetsk Cosmodrome, Russian Federation

...

Latest news about this satellite

There are no fresh news available about this satellite. Check back as we update our databases every day.


Newsletter sign-up

Weekly statistics, charts and insights to help you stay on top of the space industry.